Hourly Data Report for July 19, 2021

CAMPBELL RIVER A
BRITISH COLUMBIA
Current Station Operator: NAVCAN

49°57'07.000" N
125°16'23.000" W
108.80 m
1021270
YBL

Download Data

Hourly Data (July 2021)
Hourly Data Report for July 19, 2021
TIME
LST
Temp Definition
°C
Dew Point Definition
°C
Rel Hum Definition
%
Precip. Amount Definition
mm

Wind Dir Definition
10's deg

Wind Spd Definition
km/h
Visibility Definition
km
Stn Press Definition
kPa
Hmdx Definition


Wind Chill Definition


Weather Definition


00:00 10.9 10.0 95 LegendMM 32 8 LegendMM 100.66     LegendNANA
01:00 10.8 10.0 94 LegendMM 30 7 LegendMM 100.65     LegendNANA
02:00 10.2 9.7 96 LegendMM 29 5 LegendMM 100.66     LegendNANA
03:00 10.7 10.0 96 LegendMM 29 7 LegendMM 100.66     LegendNANA
04:00 11.4 9.7 90 LegendMM 30 9 LegendMM 100.67     LegendNANA
05:00 11.3 10.2 93 LegendMM 30 8 LegendMM 100.68     LegendNANA
06:00 14.7 11.9 83 LegendMM 31 9 LegendMM 100.70     LegendNANA
07:00 17.0 11.5 70 LegendMM 31 10 LegendMM 100.69     LegendNANA
08:00 19.2 11.7 61 LegendMM 28 5 LegendMM 100.68     LegendNANA
09:00 20.3 11.6 57 LegendMM 8 8 LegendMM 100.66     LegendNANA
10:00 21.6 11.7 53 LegendMM 6 11 LegendMM 100.63     LegendNANA
11:00 22.5 11.4 49 LegendMM 10 9 LegendMM 100.59     LegendNANA
12:00 23.9 11.3 45 LegendMM 7 16 LegendMM 100.57 26   LegendNANA
13:00 23.4 10.1 42 LegendMM 10 15 LegendMM 100.52 25   LegendNANA
14:00 23.9 10.8 43 LegendMM 11 10 LegendMM 100.49 26   LegendNANA
15:00 24.2 11.8 45 LegendMM 7 12 LegendMM 100.45 26   LegendNANA
16:00 25.5 10.5 38 LegendMM 12 17 LegendMM 100.38 27   LegendNANA
17:00 23.1 11.5 48 LegendMM 11 13 LegendMM 100.34 25   LegendNANA
18:00 23.3 14.0 55 LegendMM 8 9 LegendMM 100.30 27   LegendNANA
19:00 23.1 13.6 54 LegendMM 30 8 LegendMM 100.33 26   LegendNANA
20:00 20.5 13.6 64 LegendMM 31 14 LegendMM 100.38     LegendNANA
21:00 19.0 13.3 69 LegendMM 30 17 LegendMM 100.40     LegendNANA
22:00 17.7 13.7 77 LegendMM 30 17 LegendMM 100.44     LegendNANA
23:00 15.8 12.7 81 LegendMM 31 11 LegendMM 100.47     LegendNANA

Notes on Data Quality.

Legend

  • E = Estimated
  • M = Missing
  • NA = Not Available*
  • [empty] = Indicates an unobserved value
Date modified: